[[{"header":{"parameterUnit":"m.s-1","parameterCategory":1,"la1":30.2991,"la2":30.254,"lo1":-89.0895,"lo2":-89.0444,"dy":0.0017,"dx":0.0017,"nx":28,"ny":28,"refTime":"2025-08-24T03:00:00:Z","depth":0,"parameterNumber":2,"parameterNumberName":"U-component_of_WINDS"},"data":[0,0,0,0,0,0,0,0,0,0,0,0,0,0,0,0,0,0,0,0,0,0,0,0,0,0,0,0,0,0,0,0,0,0,0,0,0,0,0,0,0,0,0,0,0,0,0,0,0,0,0,0,0,0,0,0,0,0,1.7065,1.7066,0,1.7119,1.712,1.7121,1.7162,1.7162,1.7163,1.7163,1.7219,1.722,1.7221,0,0,0,0,0,0,0,0,0,0,0,0,0,1.6999,1.7,1.7065,1.7066,1.7067,1.7119,1.712,1.7121,1.7162,1.7162,1.7163,1.7163,1.7219,1.722,1.7221,0,0,0,0,0,0,0,0,0,0,0,0,0,1.7038,1.7,1.7065,1.7094,1.7097,1.7119,1.712,1.7121,1.7162,1.7162,1.7163,1.7164,1.7218,1.722,1.7222,1.7221,0,0,1.7227,1.7228,0,0,0,0,0,0,0,0,1.7036,1.704,1.7089,1.7092,1.7095,1.7135,1.7117,1.7154,1.7162,1.7137,1.7163,1.7164,1.7191,1.7195,1.7204,1.7223,1.7226,1.7227,1.7228,1.7229,1.7229,0,0,0,0,0,0,0,1.7033,1.7038,1.7087,1.7089,1.7093,1.7104,1.711,1.7125,1.716,1.7139,1.7142,1.7148,1.7192,1.7202,1.7205,1.7227,1.7227,1.7228,1.723,1.723,1.7249,1.7248,0,0,0,0,0,0,1.7026,1.7036,1.7085,1.7088,1.7066,1.7105,1.7112,1.7121,1.716,1.7166,1.7148,1.715,1.7199,1.7203,1.7207,1.7208,1.7229,1.723,1.7231,1.7249,1.7248,1.7248,0,0,0,0,0,0,1.7024,1.703,1.7083,1.7063,1.7071,1.7105,1.7116,1.7122,1.7131,1.7166,1.7173,1.7151,1.7199,1.7205,1.7217,1.7211,1.7231,1.7233,1.725,1.7249,1.7248,1.7211,0,0,0,0,0,0,1.7022,1.7029,1.7028,1.7063,1.7071,1.7091,1.7116,1.7123,1.7134,1.7138,1.7171,1.7177,1.72,1.7214,1.7219,1.7214,1.7234,1.725,1.7249,1.7248,1.7213,1.7209,1.7205,0,0,0,0,0,1.702,1.7016,1.7028,1.7034,1.7072,1.7091,1.7096,1.7123,1.7133,1.7134,1.7156,1.7176,1.7211,1.7215,1.7221,1.7216,1.7251,1.725,1.7249,1.7214,1.721,1.7206,0,0,0,0,0,0,1.698,1.7021,1.7035,1.7042,1.7063,1.7098,1.7098,1.7117,1.7135,1.7137,1.717,1.7177,1.7186,1.7202,1.7206,1.7217,1.7234,1.7233,1.7206,1.7202,1.7198,1.7193,1.7235,0,0,0,0,0,1.6972,1.6984,1.7019,1.7022,1.7032,1.7063,1.7073,1.7092,1.7114,1.7123,1.7147,1.7168,1.7184,1.7194,1.7211,1.7216,1.7224,1.7215,1.7212,1.7209,1.7208,1.7212,1.7208,1.7244,1.7244,1.7244,0,0,1.6956,1.698,1.6985,1.7015,1.7033,1.7045,1.707,1.7082,1.7091,1.7125,1.7138,1.7156,1.7182,1.719,1.7195,1.7205,1.72,1.7207,1.7204,1.7205,1.721,1.7207,1.7204,1.7243,1.7243,1.7243,0,0,1.6933,1.6952,1.6956,1.6974,1.7001,1.7022,1.7023,1.7056,1.7069,1.7082,1.7108,1.712,1.7147,1.7165,1.7177,1.7161,1.718,1.7166,1.7147,1.715,1.7147,1.7145,1.7139,1.7136,1.7165,1.7165,1.7165,0,1.6909,1.6927,1.6956,1.6966,1.6979,1.701,1.7015,1.7031,1.7062,1.707,1.708,1.7115,1.7135,1.7148,1.7144,1.7153,1.7156,1.7162,1.7145,1.7143,1.7141,1.7136,1.7134,1.7163,1.7163,1.7164,1.7164,0,1.6897,1.6909,1.691,1.6939,1.6952,1.6959,1.699,1.6999,1.7017,1.7037,1.7051,1.7076,1.7098,1.7103,1.7121,1.7119,1.7124,1.7139,1.7156,1.7136,1.7131,1.7129,1.716,1.7161,1.7162,1.7162,0,0,1.6849,1.6894,1.6894,1.6908,1.694,1.6951,1.696,1.6982,1.6989,1.701,1.7018,1.7041,1.7056,1.707,1.709,1.7093,1.7079,1.7108,1.7109,1.7101,1.7078,1.7065,1.7062,1.7092,1.7091,1.7091,1.7075,0,1.683,1.6847,1.6874,1.6883,1.6895,1.6926,1.6934,1.6955,1.6974,1.6988,1.701,1.7025,1.7043,1.7052,1.7056,1.7079,1.7074,1.7081,1.71,1.71,1.7091,1.706,1.7047,1.703,1.7074,1.7073,1.7073,0,1.6809,1.6828,1.6838,1.687,1.6876,1.6883,1.6905,1.6918,1.6943,1.6957,1.6973,1.6995,1.7007,1.7023,1.7039,1.7044,1.7053,1.7066,1.7066,1.7068,1.7084,1.706,1.7026,1.7023,1.7071,1.7071,1.7071,0,1.6772,1.6801,1.681,1.6821,1.6859,1.6863,1.6879,1.6904,1.6916,1.6936,1.6944,1.6965,1.6976,1.6992,1.7019,1.7029,1.7033,1.7051,1.7045,1.7044,1.7043,1.7043,1.7009,1.7051,1.7051,1.7051,1.7051,0,1.6748,1.6752,1.6794,1.68,1.6806,1.6837,1.6843,1.6862,1.6885,1.6895,1.6924,1.6933,1.6969,1.6982,1.7004,1.7015,1.702,1.7031,1.7037,1.7028,1.7027,1.7034,1.7036,1.705,1.7051,1.7051,1.7051,0,1.6707,1.6735,1.6747,1.6782,1.6791,1.6794,1.6825,1.6832,1.6853,1.6866,1.6871,1.6904,1.6922,1.6951,1.6978,1.6992,1.6998,1.7008,1.6989,1.6993,1.6984,1.6984,1.6953,1.695,1.6995,1.6994,1.6994,0,1.6689,1.6693,1.6728,1.6737,1.6752,1.6766,1.6778,1.681,1.6821,1.685,1.6853,1.6873,1.689,1.6917,1.6944,1.6964,1.6975,1.6962,1.6978,1.6969,1.6974,1.6973,1.6973,1.6958,1.6958,1.6957,1.6957,0,1.6653,1.6667,1.6683,1.6704,1.6717,1.6735,1.6755,1.676,1.6796,1.6808,1.6826,1.6839,1.6866,1.6885,1.6909,1.6927,1.6947,1.6952,1.6951,1.6942,1.693,1.6936,1.6979,1.6952,1.6953,1.6953,1.6953,1.6953,1.6623,1.6628,1.6654,1.6671,1.6689,1.6706,1.6715,1.6737,1.6753,1.6777,1.6795,1.6811,1.6837,1.6872,1.6888,1.6902,1.6911,1.6911,1.691,1.6909,1.6906,1.6929,1.6907,1.6907,1.6907,1.6907,1.6907,0,1.6588,1.6606,1.6622,1.6648,1.6661,1.668,1.6703,1.6713,1.6727,1.6749,1.6766,1.6787,1.6806,1.6835,1.6856,1.6862,1.6872,1.6866,1.6865,1.6869,1.6896,1.6894,1.6857,1.6857,1.6857,1.6857,1.6857,1.6857,1.6571,1.6581,1.6598,1.6617,1.6636,1.6652,1.6664,1.668,1.6698,1.672,1.6736,1.6755,1.678,1.6803,1.6822,1.683,1.6836,1.6827,1.6838,1.6863,1.6867,1.6871,1.687,1.6828,1.6828,1.6809,1.6809,1.6809]},{"header":{"parameterUnit":"m.s-1","parameterCategory":1,"la1":30.2991,"la2":30.254,"lo1":-89.0895,"lo2":-89.0444,"dy":0.0017,"dx":0.0017,"nx":28,"ny":28,"refTime":"2025-08-24T03:00:00:Z","depth":0,"parameterNumber":3,"parameterNumberName":"V-component_of_WINDS"},"data":[0,0,0,0,0,0,0,0,0,0,0,0,0,0,0,0,0,0,0,0,0,0,0,0,0,0,0,0,0,0,0,0,0,0,0,0,0,0,0,0,0,0,0,0,0,0,0,0,0,0,0,0,0,0,0,0,0,0,-0.1397,-0.1397,0,-0.1399,-0.1399,-0.1399,-0.1415,-0.1416,-0.1416,-0.1416,-0.1418,-0.1418,-0.1418,0,0,0,0,0,0,0,0,0,0,0,0,0,-0.1409,-0.1408,-0.1397,-0.1397,-0.1397,-0.1399,-0.1399,-0.1399,-0.1415,-0.1416,-0.1416,-0.1417,-0.1418,-0.1418,-0.1418,0,0,0,0,0,0,0,0,0,0,0,0,0,-0.1406,-0.1408,-0.1397,-0.1405,-0.1406,-0.1399,-0.1399,-0.1399,-0.1415,-0.1416,-0.1416,-0.1417,-0.1419,-0.1418,-0.1418,-0.1402,0,0,-0.1416,-0.1416,0,0,0,0,0,0,0,0,-0.1406,-0.1406,-0.1404,-0.1404,-0.1405,-0.1407,-0.1404,-0.14,-0.1415,-0.1412,-0.1416,-0.1417,-0.1414,-0.1414,-0.1413,-0.1403,-0.1403,-0.1416,-0.1416,-0.1416,-0.1415,0,0,0,0,0,0,0,-0.1407,-0.1406,-0.1397,-0.1404,-0.1405,-0.141,-0.141,-0.1403,-0.1409,-0.1412,-0.1413,-0.1413,-0.1415,-0.1414,-0.1413,-0.1403,-0.1416,-0.1416,-0.1415,-0.1415,-0.1384,-0.1383,0,0,0,0,0,0,-0.1405,-0.1406,-0.1397,-0.1397,-0.1407,-0.1409,-0.1409,-0.1406,-0.141,-0.1411,-0.1413,-0.1414,-0.1414,-0.1414,-0.1413,-0.1398,-0.1416,-0.1415,-0.1415,-0.1384,-0.1384,-0.1383,0,0,0,0,0,0,-0.1406,-0.1404,-0.1397,-0.1402,-0.1402,-0.1408,-0.1404,-0.1406,-0.1405,-0.141,-0.1411,-0.141,-0.1415,-0.1414,-0.1406,-0.1399,-0.1415,-0.1414,-0.1385,-0.1384,-0.1383,-0.1366,0,0,0,0,0,0,-0.1406,-0.1404,-0.1398,-0.1402,-0.1401,-0.1389,-0.1404,-0.1405,-0.1404,-0.1406,-0.1408,-0.1409,-0.1415,-0.1407,-0.1406,-0.1398,-0.1414,-0.1386,-0.1385,-0.1384,-0.1368,-0.1365,-0.1363,0,0,0,0,0,-0.1406,-0.1392,-0.1397,-0.1396,-0.1393,-0.1388,-0.1388,-0.1395,-0.1403,-0.1397,-0.1402,-0.1409,-0.14,-0.1406,-0.1404,-0.1397,-0.1386,-0.1385,-0.1384,-0.1369,-0.1366,-0.1363,0,0,0,0,0,0,-0.1386,-0.1393,-0.1399,-0.1385,-0.1386,-0.1391,-0.1384,-0.1391,-0.139,-0.1391,-0.14,-0.1401,-0.1392,-0.1394,-0.14,-0.1384,-0.1394,-0.1393,-0.1384,-0.1381,-0.1378,-0.1378,-0.1414,0,0,0,0,0,-0.138,-0.1376,-0.1382,-0.137,-0.137,-0.1377,-0.1375,-0.1381,-0.1382,-0.1382,-0.1386,-0.1387,-0.1385,-0.1383,-0.138,-0.1368,-0.137,-0.1363,-0.1361,-0.1359,-0.1357,-0.1354,-0.1351,-0.1379,-0.1379,-0.1379,0,0,-0.1368,-0.1371,-0.1367,-0.1366,-0.1367,-0.1363,-0.1377,-0.1371,-0.1369,-0.1381,-0.1375,-0.1377,-0.138,-0.137,-0.1366,-0.1371,-0.135,-0.1357,-0.1355,-0.1355,-0.1352,-0.135,-0.1347,-0.1378,-0.1378,-0.1379,0,0,-0.1344,-0.1345,-0.1336,-0.1338,-0.1341,-0.1346,-0.1344,-0.1349,-0.1351,-0.1345,-0.1355,-0.1353,-0.1347,-0.135,-0.135,-0.1331,-0.1338,-0.133,-0.1317,-0.1314,-0.1312,-0.131,-0.1305,-0.1303,-0.1328,-0.1328,-0.1328,0,-0.1328,-0.1322,-0.1331,-0.1325,-0.1326,-0.1338,-0.1331,-0.1332,-0.1334,-0.1334,-0.134,-0.1336,-0.1338,-0.1331,-0.1327,-0.1326,-0.1325,-0.1329,-0.1311,-0.131,-0.1308,-0.1303,-0.1301,-0.1327,-0.1327,-0.1327,-0.1328,0,-0.1304,-0.13,-0.1293,-0.1295,-0.1295,-0.1288,-0.1297,-0.1295,-0.1302,-0.1307,-0.1302,-0.1306,-0.1306,-0.1305,-0.131,-0.1299,-0.1302,-0.131,-0.132,-0.1304,-0.13,-0.1298,-0.1326,-0.1326,-0.1327,-0.1327,0,0,-0.1265,-0.1275,-0.1273,-0.1275,-0.1281,-0.1278,-0.1273,-0.1274,-0.1274,-0.1275,-0.1273,-0.127,-0.1278,-0.1278,-0.1285,-0.1282,-0.1269,-0.129,-0.129,-0.1287,-0.126,-0.1255,-0.1252,-0.1275,-0.1274,-0.1274,-0.126,0,-0.1244,-0.1236,-0.1245,-0.1236,-0.1234,-0.1247,-0.1244,-0.1247,-0.1253,-0.1252,-0.1258,-0.1257,-0.1266,-0.1267,-0.1265,-0.1271,-0.1264,-0.1272,-0.1273,-0.1273,-0.1273,-0.125,-0.1244,-0.1231,-0.1258,-0.1258,-0.1258,0,-0.1216,-0.1219,-0.1209,-0.1218,-0.1218,-0.1214,-0.1218,-0.1217,-0.1222,-0.1227,-0.1229,-0.1237,-0.1235,-0.1245,-0.1243,-0.1248,-0.125,-0.1253,-0.1253,-0.1254,-0.1265,-0.1251,-0.1226,-0.1225,-0.1255,-0.1255,-0.1255,0,-0.1192,-0.1192,-0.1188,-0.1189,-0.1199,-0.1197,-0.1201,-0.1207,-0.1208,-0.1211,-0.1212,-0.1215,-0.1216,-0.1219,-0.1228,-0.1235,-0.1226,-0.1236,-0.1231,-0.123,-0.1228,-0.1228,-0.1204,-0.1227,-0.1227,-0.1227,-0.1227,0,-0.1167,-0.1162,-0.1177,-0.1174,-0.1169,-0.1181,-0.1176,-0.1181,-0.1187,-0.1186,-0.1198,-0.1197,-0.121,-0.1211,-0.1219,-0.1217,-0.1217,-0.1222,-0.1224,-0.1221,-0.1221,-0.1222,-0.1224,-0.1227,-0.1227,-0.1227,-0.1227,0,-0.1139,-0.1148,-0.1145,-0.1155,-0.1158,-0.1154,-0.1163,-0.1162,-0.1169,-0.1169,-0.1169,-0.1181,-0.1183,-0.1193,-0.1197,-0.1203,-0.1199,-0.1202,-0.1197,-0.1199,-0.1193,-0.1194,-0.117,-0.1168,-0.1191,-0.1191,-0.1191,0,-0.1122,-0.1119,-0.113,-0.1131,-0.1135,-0.1135,-0.1137,-0.1149,-0.1151,-0.1159,-0.1157,-0.116,-0.1164,-0.1167,-0.1176,-0.118,-0.1185,-0.1176,-0.1185,-0.1184,-0.1186,-0.1187,-0.1188,-0.1174,-0.1174,-0.1174,-0.1173,0,-0.1094,-0.11,-0.1102,-0.1107,-0.1109,-0.1113,-0.1118,-0.1118,-0.1132,-0.1133,-0.1136,-0.1139,-0.1145,-0.1149,-0.1155,-0.116,-0.117,-0.1171,-0.117,-0.1167,-0.1165,-0.1168,-0.1193,-0.1171,-0.1171,-0.1171,-0.1171,-0.1172,-0.1072,-0.1071,-0.1079,-0.1082,-0.1087,-0.1092,-0.1092,-0.1101,-0.1103,-0.1109,-0.1117,-0.1119,-0.1128,-0.1137,-0.1142,-0.1145,-0.115,-0.1148,-0.1148,-0.1147,-0.1147,-0.1164,-0.1146,-0.1146,-0.1146,-0.1146,-0.1146,0,-0.1046,-0.1052,-0.1055,-0.1062,-0.1065,-0.1075,-0.1081,-0.1083,-0.1086,-0.1093,-0.1097,-0.1102,-0.1106,-0.1117,-0.1122,-0.1123,-0.1128,-0.1124,-0.1125,-0.1126,-0.1141,-0.1142,-0.1121,-0.1121,-0.1121,-0.1121,-0.1121,-0.1121,-0.1032,-0.1031,-0.1038,-0.1041,-0.1047,-0.1051,-0.1054,-0.106,-0.1066,-0.1071,-0.1075,-0.1082,-0.1091,-0.1098,-0.1103,-0.1107,-0.1109,-0.1104,-0.1109,-0.1122,-0.1125,-0.1127,-0.1128,-0.1104,-0.1104,-0.1094,-0.1094,-0.1094]}]]